Weather Roundup
Issued by NWS

Home | Current Version | Previous Version | Text Only | Print | Product List | Glossary On
Versions: 1 2 3 4 5 6 7 8 9 10 11 12 13 14 15 16 17 18 19 20 21 22 23 24 25 26 27 28 29 30 31 32 33 34 35 36 37 38 39 40 41 42 43 44 45 46 47 48 49 50
303
NZUS93 KARX 252059
HRRWXR

CURRENT HOURLY OBSERVATIONS ACROSS
MUCH OF THE UPPER MISSISSIPPI VALLEY
NATIONAL WEATHER SERVICE LA CROSSE WI
400 PM CDT WED MAY 25 2016


...SOUTHEAST MINNESOTA...


CITY           SKY/WX    TMP DP  RH WIND       PRES   REMARKS
ROCHESTER      PTSUNNY   71  67  87 S13       29.84F
ROCHESTER/MAYO CLOUDY    69  67  95 S6        29.84F
WINONA         HVY RAIN  70  66  88 CALM      29.82S
AUSTIN         CLOUDY    73  64  73 SW12      29.84S
ALBERT LEA     CLOUDY    73  63  68 CALM      29.83S
DODGE CENTER   CLOUDY    68  66  94 SW17      29.83F
PRESTON        CLOUDY    72  63  73 S17G25    29.85F
OWATONNA       CLOUDY    72  64  78 SW10      29.82F
FARIBAULT      NOT AVBL
$$

...ELSEWHERE IN MINNESOTA...


CITY           SKY/WX    TMP DP  RH WIND       PRES   REMARKS
MINNEAPOLIS    CLOUDY    72  63  73 SE13      29.81F
INTNL FALLS    CLOUDY    67  55  65 E10       29.88F
DULUTH         LGT RAIN  49  47  93 E14       29.96R VSB 3/4
RED WING       RAIN      68  66  94 CALM      29.81F
REDWOOD FALLS  MOSUNNY   80  61  52 S16       29.77F
MANKATO        CLOUDY    77  59  53 S6        29.82S
WORTHINGTON    PTSUNNY   76  62  62 SW13      29.83S
FAIRMONT       CLOUDY    77  54  44 SW15      29.80F
$$

...SOUTHWEST WISCONSIN...


CITY           SKY/WX    TMP DP  RH WIND       PRES   REMARKS
LA CROSSE      MOSUNNY   75  67  76 SE6       29.81F
PRAIRIE DU CHI CLOUDY    81  62  51 S9G16     29.82F
BOSCOBEL       CLOUDY    85  62  46 S10G17    29.82F
LONE ROCK      NOT AVBL
PLATTEVILLE    CLOUDY    82  61  48 S20G26    29.85F
FORT MC COY    DRIZZLE   73  67  80 SE3       29.84F
MAUSTON-NEW LI LGT RAIN  62  60  94 CALM      29.86S
VIROQUA        FAIR      71  65  81 SE7       29.85F
WIS DELLS      CLOUDY    80  63  54 SE8       29.85F
$$

...ELSEWHERE IN WISCONSIN...


CITY           SKY/WX    TMP DP  RH WIND       PRES   REMARKS
MILWAUKEE      PTSUNNY   61  53  75 NE9       29.93F
MADISON        CLOUDY    78  66  66 SE13      29.86F
GREEN BAY      MOSUNNY   71  59  65 NE14      29.94F
EAU CLAIRE     HVY RAIN  66  63  88 SE6       29.84F FOG
BLACK RVR FLS  MOCLDY    72  70  95 CALM      29.84F
MEDFORD        LGT RAIN  70  60  70 SE12      29.91R
WAUSAU         CLOUDY    75  59  57 E12G20    29.90S
WIS RAPIDS     TSTM      69  63  81 S6        29.93R
MARSHFIELD     TSTM      69  64  84 SE18G25   29.90S
RICE LAKE      TSTM      65  61  85 SW16      29.87R VSB 1
$$

...NORTHEAST IOWA...


CITY           SKY/WX    TMP DP  RH WIND       PRES   REMARKS
WATERLOO       PTSUNNY   79  62  56 S13       29.84S
DUBUQUE        CLOUDY    80  65  59 SW20      29.86F
DECORAH        PTSUNNY   75  70  83 VRB6G16   29.85S
MASON CITY     CLOUDY    75  65  70 SW13      29.85S
CHARLES CITY   PTSUNNY   75  66  73 SW9G17    29.86S
OELWEIN        MOSUNNY   79  63  57 SW18      29.86F
$$

...ELSEWHERE IN IOWA...


CITY           SKY/WX    TMP DP  RH WIND       PRES   REMARKS
DES MOINES     CLOUDY    78  62  57 S8        29.86S
IOWA CITY      CLOUDY    81  59  47 SW12      29.87F
FORT DODGE     MOSUNNY   79  63  57 SW9       29.84F
MARSHALLTOWN   CLOUDY    78  62  57 S15       29.85R
CEDAR RAPIDS   CLOUDY    79  64  60 S10       29.86S
$$

...NORTHERN ILLINOIS...


CITY           SKY/WX    TMP DP  RH WIND       PRES   REMARKS
CHICAGO-OHARE  PTSUNNY   85  61  44 SE12G18   29.88F
CHICAGO-MIDWAY PTSUNNY   89  56  32 S12G18    29.89F
MOLINE         CLOUDY    85  60  42 SW13      29.86F
ROCKFORD       TSTM      72  65  78 S13G23    29.91R
PEORIA         CLOUDY    82  65  56 S16G30    29.90F
$$

NOTE: "FAIR" INDICATES FEW OR NO CLOUDS BELOW 12,000 FEET WITH NO
SIGNIFICANT WEATHER AND/OR OBSTRUCTIONS TO VISIBILITY. WIND
SPEEDS ARE IN MILES-PER-HOUR.




USA.gov is the U.S. government's official web portal to all federal, state and local government web resources and services.